TimeCDT,TemperatureF,Dew PointF,Humidity,Sea Level PressureIn,VisibilityMPH,Wind Direction,Wind SpeedMPH,Gust SpeedMPH,PrecipitationIn,Events,Conditions,WindDirDegrees,DateUTC
12:54 AM,48.9,44.1,83,29.98,10.0,SE,4.6,-,N/A,,Clear,130,2012-10-04 05:54:00
1:54 AM,46.9,44.1,90,29.97,10.0,East,5.8,-,N/A,,Clear,100,2012-10-04 06:54:00
2:54 AM,46.9,45.0,93,29.95,10.0,East,4.6,-,N/A,,Clear,100,2012-10-04 07:54:00
3:54 AM,46.0,44.1,93,29.94,10.0,East,5.8,-,N/A,,Clear,100,2012-10-04 08:54:00
4:54 AM,45.0,43.0,93,29.93,10.0,ESE,6.9,-,N/A,,Clear,110,2012-10-04 09:54:00
5:54 AM,44.1,43.0,96,29.92,10.0,ESE,4.6,-,N/A,,Clear,120,2012-10-04 10:54:00
6:54 AM,45.0,42.1,90,29.90,9.0,ESE,5.8,-,N/A,,Clear,110,2012-10-04 11:54:00
7:54 AM,48.0,46.0,93,29.90,9.0,SSE,6.9,-,N/A,,Clear,150,2012-10-04 12:54:00
8:54 AM,55.9,50.0,80,29.88,10.0,SSE,5.8,-,N/A,,Clear,160,2012-10-04 13:54:00
9:54 AM,59.0,48.0,67,29.87,10.0,SW,11.5,-,0.01,,Scattered Clouds,220,2012-10-04 14:54:00
10:54 AM,62.1,46.0,56,29.87,10.0,SSW,16.1,23.0,N/A,,Clear,210,2012-10-04 15:54:00
11:54 AM,59.0,43.0,55,29.89,9.0,WSW,15.0,23.0,N/A,,Clear,250,2012-10-04 16:54:00
12:54 PM,60.1,41.0,49,29.89,10.0,WSW,17.3,24.2,N/A,,Clear,240,2012-10-04 17:54:00
1:54 PM,61.0,39.0,44,29.89,10.0,SW,11.5,25.3,N/A,,Clear,230,2012-10-04 18:54:00
2:54 PM,61.0,36.0,39,29.91,10.0,West,19.6,24.2,N/A,,Clear,260,2012-10-04 19:54:00
3:54 PM,59.0,35.1,41,29.93,10.0,West,18.4,26.5,N/A,,Clear,270,2012-10-04 20:54:00
4:54 PM,55.0,32.0,42,29.95,10.0,West,23.0,36.8,N/A,,Clear,260,2012-10-04 21:54:00
5:54 PM,52.0,32.0,47,29.98,10.0,West,23.0,31.1,N/A,,Clear,270,2012-10-04 22:54:00
6:54 PM,48.9,30.9,50,29.99,10.0,West,17.3,27.6,N/A,,Clear,270,2012-10-04 23:54:00
7:54 PM,46.0,30.9,56,30.01,10.0,West,15.0,24.2,N/A,,Clear,270,2012-10-05 00:54:00
8:54 PM,45.0,30.0,56,30.02,10.0,West,15.0,-,N/A,,Mostly Cloudy,260,2012-10-05 01:54:00
9:54 PM,44.1,30.0,58,30.03,10.0,West,16.1,33.4,N/A,,Overcast,270,2012-10-05 02:54:00
10:54 PM,43.0,28.9,58,30.03,10.0,West,17.3,28.8,N/A,,Overcast,260,2012-10-05 03:54:00
11:54 PM,41.0,28.0,60,30.04,10.0,West,12.7,26.5,N/A,,Partly Cloudy,270,2012-10-05 04:54:00